contact:dominique.lefevre@mio.osupytheas.fr, maurice.libes@osupytheas.fr, didier.mallarino@osupytheas.fr
Project:EMSO http://www.emso-fr.org/EMSO-France
Depth: 2436.0 m
Title:EMSO Ligure Ouest : Data MII capteur MICROCAT
DateTime_Computer,Latitude,Longitude,Temperature,Conductivity,Pressure,DateTime_Instrument
DateTime_Computer,Latitude,Longitude,degC,S m-1,dbar,DateTime_Instrument
2019-12-14T00:00:08Z,42.805,6.029,13.2958,4.59959,2469.76,2019-12-14T02:00:38Z
2019-12-14T00:03:11Z,42.805,6.029,13.2958,4.59958,2469.76,2019-12-14T02:03:41Z
2019-12-14T00:06:14Z,42.805,6.029,13.2966,4.59958,2469.76,2019-12-14T02:06:44Z
2019-12-14T00:09:18Z,42.805,6.029,13.2957,4.59958,2469.737,2019-12-14T02:09:48Z
2019-12-14T00:12:21Z,42.805,6.029,13.2963,4.59958,2469.76,2019-12-14T02:12:51Z
2019-12-14T00:15:24Z,42.805,6.029,13.2961,4.59958,2469.737,2019-12-14T02:15:54Z
2019-12-14T00:18:27Z,42.805,6.029,13.2961,4.59958,2469.737,2019-12-14T02:18:57Z
2019-12-14T00:21:30Z,42.805,6.029,13.2964,4.59959,2469.75,2019-12-14T02:22:00Z
2019-12-14T00:24:34Z,42.805,6.029,13.2961,4.59959,2469.773,2019-12-14T02:25:04Z
2019-12-14T00:27:37Z,42.805,6.029,13.2960,4.59960,2469.76,2019-12-14T02:28:07Z
2019-12-14T00:30:40Z,42.805,6.029,13.2960,4.59960,2469.797,2019-12-14T02:31:10Z
2019-12-14T00:33:43Z,42.805,6.029,13.2964,4.59960,2469.773,2019-12-14T02:34:13Z
2019-12-14T00:36:47Z,42.805,6.029,13.2962,4.59959,2469.773,2019-12-14T02:37:17Z
2019-12-14T00:39:50Z,42.805,6.029,13.2967,4.59958,2469.737,2019-12-14T02:40:20Z
2019-12-14T00:42:53Z,42.805,6.029,13.2959,4.59960,2469.75,2019-12-14T02:43:23Z
2019-12-14T00:45:56Z,42.805,6.029,13.2961,4.59959,2469.737,2019-12-14T02:46:26Z
2019-12-14T00:49:00Z,42.805,6.029,13.2962,4.59960,2469.737,2019-12-14T02:49:30Z
2019-12-14T00:52:03Z,42.805,6.029,13.2960,4.59960,2469.737,2019-12-14T02:52:33Z
2019-12-14T00:55:06Z,42.805,6.029,13.2962,4.59959,2469.713,2019-12-14T02:55:36Z
2019-12-14T00:58:09Z,42.805,6.029,13.2964,4.59959,2469.713,2019-12-14T02:58:39Z
2019-12-14T01:01:12Z,42.805,6.029,13.2967,4.59960,2469.737,2019-12-14T03:01:42Z
2019-12-14T01:04:16Z,42.805,6.029,13.2962,4.59961,2469.737,2019-12-14T03:04:46Z
2019-12-14T01:07:19Z,42.805,6.029,13.2962,4.59960,2469.713,2019-12-14T03:07:49Z
2019-12-14T01:10:22Z,42.805,6.029,13.2961,4.59959,2469.737,2019-12-14T03:10:52Z
2019-12-14T01:13:25Z,42.805,6.029,13.2961,4.59961,2469.75,2019-12-14T03:13:55Z
2019-12-14T01:16:29Z,42.805,6.029,13.2964,4.59960,2469.713,2019-12-14T03:16:59Z
2019-12-14T01:19:32Z,42.805,6.029,13.2964,4.59960,2469.727,2019-12-14T03:20:02Z
2019-12-14T01:22:35Z,42.805,6.029,13.2961,4.59960,2469.764,2019-12-14T03:23:05Z
2019-12-14T01:25:39Z,42.805,6.029,13.2962,4.59960,2469.727,2019-12-14T03:26:08Z
2019-12-14T01:28:42Z,42.805,6.029,13.2961,4.59960,2469.773,2019-12-14T03:29:12Z
2019-12-14T01:31:45Z,42.805,6.029,13.2964,4.59960,2469.737,2019-12-14T03:32:15Z
2019-12-14T01:34:48Z,42.805,6.029,13.2962,4.59960,2469.727,2019-12-14T03:35:18Z
2019-12-14T01:37:51Z,42.805,6.029,13.2962,4.59960,2469.75,2019-12-14T03:38:21Z
2019-12-14T01:40:54Z,42.805,6.029,13.2957,4.59960,2469.727,2019-12-14T03:41:24Z
2019-12-14T01:43:58Z,42.805,6.029,13.2965,4.59960,2469.727,2019-12-14T03:44:28Z
2019-12-14T01:47:01Z,42.805,6.029,13.2966,4.59961,2469.69,2019-12-14T03:47:31Z
2019-12-14T01:50:04Z,42.805,6.029,13.2966,4.59960,2469.727,2019-12-14T03:50:34Z
2019-12-14T01:53:07Z,42.805,6.029,13.2964,4.59960,2469.713,2019-12-14T03:53:37Z
2019-12-14T01:56:10Z,42.805,6.029,13.2964,4.59960,2469.69,2019-12-14T03:56:40Z
2019-12-14T01:59:14Z,42.805,6.029,13.2965,4.59961,2469.667,2019-12-14T03:59:44Z
2019-12-14T02:02:17Z,42.805,6.029,13.2963,4.59961,2469.713,2019-12-14T04:02:47Z
2019-12-14T02:05:20Z,42.805,6.029,13.2962,4.59961,2469.727,2019-12-14T04:05:50Z
2019-12-14T02:08:23Z,42.805,6.029,13.2964,4.59961,2469.69,2019-12-14T04:08:53Z
2019-12-14T02:11:26Z,42.805,6.029,13.2962,4.59960,2469.69,2019-12-14T04:11:56Z
2019-12-14T02:14:30Z,42.805,6.029,13.2964,4.59961,2469.699,2019-12-14T04:15:00Z
2019-12-14T02:17:33Z,42.805,6.029,13.2961,4.59960,2469.727,2019-12-14T04:18:03Z
2019-12-14T02:20:36Z,42.805,6.029,13.2964,4.59960,2469.727,2019-12-14T04:21:06Z
2019-12-14T02:23:39Z,42.805,6.029,13.2961,4.59961,2469.69,2019-12-14T04:24:09Z
2019-12-14T02:26:42Z,42.805,6.029,13.2963,4.59960,2469.713,2019-12-14T04:27:12Z
2019-12-14T02:29:46Z,42.805,6.029,13.2964,4.59961,2469.713,2019-12-14T04:30:16Z
2019-12-14T02:32:49Z,42.805,6.029,13.2961,4.59961,2469.713,2019-12-14T04:33:19Z
2019-12-14T02:35:52Z,42.805,6.029,13.2965,4.59960,2469.713,2019-12-14T04:36:22Z
2019-12-14T02:38:55Z,42.805,6.029,13.2967,4.59961,2469.727,2019-12-14T04:39:25Z
2019-12-14T02:41:59Z,42.805,6.029,13.2963,4.59961,2469.704,2019-12-14T04:42:29Z
2019-12-14T02:45:02Z,42.805,6.029,13.2963,4.59961,2469.667,2019-12-14T04:45:32Z
2019-12-14T02:48:05Z,42.805,6.029,13.2961,4.59961,2469.69,2019-12-14T04:48:35Z
2019-12-14T02:51:08Z,42.805,6.029,13.2962,4.59961,2469.713,2019-12-14T04:51:38Z
2019-12-14T02:54:12Z,42.805,6.029,13.2964,4.59961,2469.727,2019-12-14T04:54:42Z
2019-12-14T02:57:15Z,42.805,6.029,13.2964,4.59961,2469.69,2019-12-14T04:57:45Z
2019-12-14T03:00:18Z,42.805,6.029,13.2964,4.59961,2469.667,2019-12-14T05:00:48Z
2019-12-14T03:03:21Z,42.805,6.029,13.2970,4.59961,2469.704,2019-12-14T05:03:51Z
2019-12-14T03:06:24Z,42.805,6.029,13.2961,4.59962,2469.69,2019-12-14T05:06:54Z
2019-12-14T03:09:28Z,42.805,6.029,13.2967,4.59961,2469.704,2019-12-14T05:09:58Z
2019-12-14T03:12:31Z,42.805,6.029,13.2968,4.59962,2469.667,2019-12-14T05:13:01Z
2019-12-14T03:15:34Z,42.805,6.029,13.2963,4.59961,2469.69,2019-12-14T05:16:04Z
2019-12-14T03:18:37Z,42.805,6.029,13.2964,4.59962,2469.727,2019-12-14T05:19:07Z
2019-12-14T03:21:40Z,42.805,6.029,13.2967,4.59961,2469.727,2019-12-14T05:22:10Z
2019-12-14T03:24:44Z,42.805,6.029,13.2962,4.59962,2469.704,2019-12-14T05:25:14Z
2019-12-14T03:27:47Z,42.805,6.029,13.2970,4.59963,2469.69,2019-12-14T05:28:17Z
2019-12-14T03:30:50Z,42.805,6.029,13.2968,4.59962,2469.737,2019-12-14T05:31:20Z
2019-12-14T03:33:53Z,42.805,6.029,13.2964,4.59963,2469.704,2019-12-14T05:34:23Z
2019-12-14T03:36:56Z,42.805,6.029,13.2967,4.59962,2469.713,2019-12-14T05:37:26Z
2019-12-14T03:39:59Z,42.805,6.029,13.2966,4.59962,2469.713,2019-12-14T05:40:29Z
2019-12-14T03:43:03Z,42.805,6.029,13.2966,4.59961,2469.713,2019-12-14T05:43:33Z
2019-12-14T03:46:06Z,42.805,6.029,13.2966,4.59962,2469.727,2019-12-14T05:46:36Z
2019-12-14T03:49:09Z,42.805,6.029,13.2971,4.59961,2469.773,2019-12-14T05:49:39Z
2019-12-14T03:52:12Z,42.805,6.029,13.2967,4.59962,2469.75,2019-12-14T05:52:42Z
2019-12-14T03:55:16Z,42.805,6.029,13.2966,4.59962,2469.727,2019-12-14T05:55:45Z
2019-12-14T03:58:19Z,42.805,6.029,13.2968,4.59961,2469.727,2019-12-14T05:58:49Z
2019-12-14T04:01:22Z,42.805,6.029,13.2963,4.59963,2469.727,2019-12-14T06:01:52Z
2019-12-14T04:04:25Z,42.805,6.029,13.2964,4.59963,2469.737,2019-12-14T06:04:55Z
2019-12-14T04:07:28Z,42.805,6.029,13.2966,4.59962,2469.75,2019-12-14T06:07:58Z
2019-12-14T04:10:31Z,42.805,6.029,13.2963,4.59963,2469.737,2019-12-14T06:11:01Z
2019-12-14T04:13:35Z,42.805,6.029,13.2965,4.59963,2469.75,2019-12-14T06:14:05Z
2019-12-14T04:16:38Z,42.805,6.029,13.2967,4.59963,2469.737,2019-12-14T06:17:08Z
2019-12-14T04:19:41Z,42.805,6.029,13.2967,4.59963,2469.75,2019-12-14T06:20:11Z
2019-12-14T04:22:44Z,42.805,6.029,13.2964,4.59963,2469.76,2019-12-14T06:23:14Z
2019-12-14T04:25:47Z,42.805,6.029,13.2968,4.59962,2469.713,2019-12-14T06:26:17Z
2019-12-14T04:28:51Z,42.805,6.029,13.2965,4.59963,2469.75,2019-12-14T06:29:21Z
2019-12-14T04:31:54Z,42.805,6.029,13.2966,4.59963,2469.773,2019-12-14T06:32:24Z
2019-12-14T04:34:57Z,42.805,6.029,13.2965,4.59963,2469.797,2019-12-14T06:35:27Z
2019-12-14T04:38:00Z,42.805,6.029,13.2968,4.59962,2469.773,2019-12-14T06:38:30Z
2019-12-14T04:41:04Z,42.805,6.029,13.2965,4.59963,2469.76,2019-12-14T06:41:34Z
2019-12-14T04:44:07Z,42.805,6.029,13.2965,4.59963,2469.76,2019-12-14T06:44:37Z
2019-12-14T04:47:10Z,42.805,6.029,13.2966,4.59963,2469.797,2019-12-14T06:47:40Z
2019-12-14T04:50:13Z,42.805,6.029,13.2963,4.59963,2469.806,2019-12-14T06:50:43Z
2019-12-14T04:53:16Z,42.805,6.029,13.2966,4.59963,2469.797,2019-12-14T06:53:46Z
2019-12-14T04:56:19Z,42.805,6.029,13.2968,4.59963,2469.783,2019-12-14T06:56:49Z
2019-12-14T04:59:23Z,42.805,6.029,13.2970,4.59963,2469.783,2019-12-14T06:59:53Z
2019-12-14T05:02:26Z,42.805,6.029,13.2966,4.59964,2469.797,2019-12-14T07:02:56Z
2019-12-14T05:05:29Z,42.805,6.029,13.2968,4.59964,2469.793,2019-12-14T07:05:59Z
2019-12-14T05:08:32Z,42.805,6.029,13.2968,4.59963,2469.797,2019-12-14T07:09:02Z
2019-12-14T05:11:35Z,42.805,6.029,13.2967,4.59965,2469.783,2019-12-14T07:12:05Z
2019-12-14T05:14:39Z,42.805,6.029,13.2967,4.59964,2469.844,2019-12-14T07:15:09Z
2019-12-14T05:17:42Z,42.805,6.029,13.2967,4.59964,2469.821,2019-12-14T07:18:12Z
2019-12-14T05:20:45Z,42.805,6.029,13.2965,4.59965,2469.83,2019-12-14T07:21:15Z
2019-12-14T05:23:48Z,42.805,6.029,13.2967,4.59964,2469.83,2019-12-14T07:24:18Z
2019-12-14T05:26:51Z,42.805,6.029,13.2969,4.59966,2469.821,2019-12-14T07:27:21Z
2019-12-14T05:29:55Z,42.805,6.029,13.2968,4.59964,2469.844,2019-12-14T07:30:25Z
2019-12-14T05:32:58Z,42.805,6.029,13.2967,4.59965,2469.83,2019-12-14T07:33:28Z
2019-12-14T05:36:01Z,42.805,6.029,13.2965,4.59964,2469.821,2019-12-14T07:36:31Z
2019-12-14T05:39:04Z,42.805,6.029,13.2966,4.59964,2469.867,2019-12-14T07:39:34Z
2019-12-14T05:42:07Z,42.805,6.029,13.2968,4.59964,2469.83,2019-12-14T07:42:37Z
2019-12-14T05:45:11Z,42.805,6.029,13.2967,4.59964,2469.83,2019-12-14T07:45:41Z
2019-12-14T05:48:14Z,42.805,6.029,13.2965,4.59964,2469.867,2019-12-14T07:48:44Z
2019-12-14T05:51:17Z,42.805,6.029,13.2967,4.59965,2469.853,2019-12-14T07:51:47Z
2019-12-14T05:54:20Z,42.805,6.029,13.2968,4.59964,2469.839,2019-12-14T07:54:50Z
2019-12-14T05:57:23Z,42.805,6.029,13.2966,4.59965,2469.853,2019-12-14T07:57:53Z
2019-12-14T06:00:27Z,42.805,6.029,13.2964,4.59964,2469.876,2019-12-14T08:00:57Z
2019-12-14T06:03:30Z,42.805,6.029,13.2967,4.59964,2469.853,2019-12-14T08:04:00Z
2019-12-14T06:06:33Z,42.805,6.029,13.2966,4.59964,2469.876,2019-12-14T08:07:03Z
2019-12-14T06:09:36Z,42.805,6.029,13.2967,4.59966,2469.89,2019-12-14T08:10:06Z
2019-12-14T06:12:39Z,42.805,6.029,13.2968,4.59966,2469.914,2019-12-14T08:13:09Z
2019-12-14T06:15:42Z,42.805,6.029,13.2967,4.59964,2469.853,2019-12-14T08:16:12Z
2019-12-14T06:18:46Z,42.805,6.029,13.2965,4.59966,2469.9,2019-12-14T08:19:16Z
2019-12-14T06:21:49Z,42.805,6.029,13.2967,4.59965,2469.9,2019-12-14T08:22:19Z
2019-12-14T06:24:52Z,42.805,6.029,13.2971,4.59967,2469.914,2019-12-14T08:25:22Z
2019-12-14T06:27:55Z,42.805,6.029,13.2971,4.59966,2469.9,2019-12-14T08:28:25Z
2019-12-14T06:30:59Z,42.805,6.029,13.2968,4.59966,2469.9,2019-12-14T08:31:29Z
2019-12-14T06:34:02Z,42.805,6.029,13.2968,4.59966,2469.9,2019-12-14T08:34:32Z
2019-12-14T06:37:05Z,42.805,6.029,13.2966,4.59966,2469.914,2019-12-14T08:37:35Z
2019-12-14T06:40:08Z,42.805,6.029,13.2971,4.59965,2469.914,2019-12-14T08:40:38Z
2019-12-14T06:43:11Z,42.805,6.029,13.2971,4.59967,2469.9,2019-12-14T08:43:41Z
2019-12-14T06:46:15Z,42.805,6.029,13.2969,4.59966,2469.937,2019-12-14T08:46:45Z
2019-12-14T06:49:18Z,42.805,6.029,13.2968,4.59966,2469.914,2019-12-14T08:49:48Z
2019-12-14T06:52:21Z,42.805,6.029,13.2965,4.59966,2469.937,2019-12-14T08:52:51Z
2019-12-14T06:55:24Z,42.805,6.029,13.2967,4.59966,2469.956,2019-12-14T08:55:54Z
2019-12-14T06:58:27Z,42.805,6.029,13.2969,4.59967,2469.9,2019-12-14T08:58:57Z
2019-12-14T07:01:30Z,42.805,6.029,13.2970,4.59967,2469.923,2019-12-14T09:02:00Z
2019-12-14T07:04:34Z,42.805,6.029,13.2970,4.59966,2469.914,2019-12-14T09:05:04Z
2019-12-14T07:07:37Z,42.805,6.029,13.2971,4.59967,2469.947,2019-12-14T09:08:07Z
2019-12-14T07:10:40Z,42.805,6.029,13.2973,4.59967,2469.96,2019-12-14T09:11:10Z
2019-12-14T07:13:43Z,42.805,6.029,13.2967,4.59968,2469.923,2019-12-14T09:14:13Z
2019-12-14T07:16:47Z,42.805,6.029,13.2971,4.59967,2469.923,2019-12-14T09:17:16Z
2019-12-14T07:19:50Z,42.805,6.029,13.2970,4.59967,2469.9,2019-12-14T09:20:20Z
2019-12-14T07:22:53Z,42.805,6.029,13.2971,4.59966,2469.96,2019-12-14T09:23:23Z
2019-12-14T07:25:56Z,42.805,6.029,13.2968,4.59968,2469.937,2019-12-14T09:26:26Z
2019-12-14T07:28:59Z,42.805,6.029,13.2972,4.59968,2469.947,2019-12-14T09:29:29Z
2019-12-14T07:32:02Z,42.805,6.029,13.2967,4.59967,2469.947,2019-12-14T09:32:32Z
2019-12-14T07:35:06Z,42.805,6.029,13.2973,4.59967,2469.923,2019-12-14T09:35:36Z
2019-12-14T07:38:09Z,42.805,6.029,13.2969,4.59967,2469.97,2019-12-14T09:38:39Z
2019-12-14T07:41:12Z,42.805,6.029,13.2971,4.59968,2469.97,2019-12-14T09:41:42Z
2019-12-14T07:44:15Z,42.805,6.029,13.2966,4.59966,2469.947,2019-12-14T09:44:45Z
2019-12-14T07:47:18Z,42.805,6.029,13.2971,4.59966,2469.923,2019-12-14T09:47:48Z
2019-12-14T07:50:22Z,42.805,6.029,13.2967,4.59967,2469.947,2019-12-14T09:50:52Z
2019-12-14T07:53:25Z,42.805,6.029,13.2969,4.59967,2469.923,2019-12-14T09:53:55Z
2019-12-14T07:56:28Z,42.805,6.029,13.2971,4.59967,2469.97,2019-12-14T09:56:58Z
2019-12-14T07:59:31Z,42.805,6.029,13.2968,4.59967,2469.947,2019-12-14T10:00:01Z
2019-12-14T08:02:34Z,42.805,6.029,13.2965,4.59967,2469.97,2019-12-14T10:03:04Z
2019-12-14T08:05:38Z,42.805,6.029,13.2968,4.59967,2469.96,2019-12-14T10:06:08Z
2019-12-14T08:08:41Z,42.805,6.029,13.2968,4.59968,2469.96,2019-12-14T10:09:11Z
2019-12-14T08:11:44Z,42.805,6.029,13.2966,4.59967,2469.96,2019-12-14T10:12:14Z
2019-12-14T08:14:47Z,42.805,6.029,13.2968,4.59967,2469.97,2019-12-14T10:15:17Z
2019-12-14T08:17:50Z,42.805,6.029,13.2966,4.59967,2469.97,2019-12-14T10:18:20Z
2019-12-14T08:20:54Z,42.805,6.029,13.2968,4.59967,2469.947,2019-12-14T10:21:24Z
2019-12-14T08:23:57Z,42.805,6.029,13.2968,4.59966,2469.97,2019-12-14T10:24:27Z
2019-12-14T08:27:00Z,42.805,6.029,13.2969,4.59967,2469.937,2019-12-14T10:27:30Z
2019-12-14T08:30:03Z,42.805,6.029,13.2969,4.59967,2469.947,2019-12-14T10:30:33Z
2019-12-14T08:33:07Z,42.805,6.029,13.2971,4.59967,2469.984,2019-12-14T10:33:37Z
2019-12-14T08:36:10Z,42.805,6.029,13.2968,4.59967,2469.97,2019-12-14T10:36:40Z
2019-12-14T08:39:13Z,42.805,6.029,13.2968,4.59967,2469.947,2019-12-14T10:39:43Z
2019-12-14T08:42:16Z,42.805,6.029,13.2974,4.59967,2470.017,2019-12-14T10:42:46Z
2019-12-14T08:45:19Z,42.805,6.029,13.2973,4.59967,2469.993,2019-12-14T10:45:49Z
2019-12-14T08:48:23Z,42.805,6.029,13.2968,4.59968,2469.947,2019-12-14T10:48:52Z
2019-12-14T08:51:26Z,42.805,6.029,13.2968,4.59968,2469.984,2019-12-14T10:51:56Z
2019-12-14T08:54:29Z,42.805,6.029,13.2973,4.59967,2469.993,2019-12-14T10:54:59Z
2019-12-14T08:57:32Z,42.805,6.029,13.2970,4.59967,2469.993,2019-12-14T10:58:02Z
2019-12-14T09:00:35Z,42.805,6.029,13.2971,4.59968,2470.007,2019-12-14T11:01:05Z
2019-12-14T09:03:38Z,42.805,6.029,13.2968,4.59968,2469.923,2019-12-14T11:04:08Z
2019-12-14T09:06:42Z,42.805,6.029,13.2972,4.59968,2469.984,2019-12-14T11:07:12Z
2019-12-14T09:09:45Z,42.805,6.029,13.2967,4.59968,2469.97,2019-12-14T11:10:15Z
2019-12-14T09:12:48Z,42.805,6.029,13.2974,4.59968,2469.947,2019-12-14T11:13:18Z
2019-12-14T09:15:51Z,42.805,6.029,13.2969,4.59967,2469.97,2019-12-14T11:16:21Z
2019-12-14T09:18:54Z,42.805,6.029,13.2968,4.59967,2469.984,2019-12-14T11:19:24Z
2019-12-14T09:21:58Z,42.805,6.029,13.2967,4.59968,2469.97,2019-12-14T11:22:28Z
2019-12-14T09:25:01Z,42.805,6.029,13.2971,4.59968,2469.96,2019-12-14T11:25:31Z
2019-12-14T09:28:04Z,42.805,6.029,13.2971,4.59968,2469.97,2019-12-14T11:28:34Z
2019-12-14T09:31:07Z,42.805,6.029,13.2970,4.59968,2469.97,2019-12-14T11:31:37Z
2019-12-14T09:34:11Z,42.805,6.029,13.2968,4.59969,2469.984,2019-12-14T11:34:41Z
2019-12-14T09:37:14Z,42.805,6.029,13.2972,4.59968,2469.96,2019-12-14T11:37:44Z
2019-12-14T09:40:17Z,42.805,6.029,13.2969,4.59968,2469.97,2019-12-14T11:40:47Z
2019-12-14T09:43:20Z,42.805,6.029,13.2969,4.59968,2469.937,2019-12-14T11:43:50Z
2019-12-14T09:46:23Z,42.805,6.029,13.2970,4.59968,2469.947,2019-12-14T11:46:53Z
2019-12-14T09:49:27Z,42.805,6.029,13.2971,4.59969,2469.97,2019-12-14T11:49:57Z
2019-12-14T09:52:30Z,42.805,6.029,13.2971,4.59968,2469.979,2019-12-14T11:53:00Z
2019-12-14T09:55:33Z,42.805,6.029,13.2970,4.59968,2469.937,2019-12-14T11:56:03Z
2019-12-14T09:58:36Z,42.805,6.029,13.2967,4.59968,2469.947,2019-12-14T11:59:06Z
2019-12-14T10:01:39Z,42.805,6.029,13.2972,4.59968,2469.96,2019-12-14T12:02:09Z
2019-12-14T10:04:43Z,42.805,6.029,13.2971,4.59967,2469.993,2019-12-14T12:05:13Z
2019-12-14T10:07:46Z,42.805,6.029,13.2975,4.59968,2469.947,2019-12-14T12:08:16Z
2019-12-14T10:10:49Z,42.805,6.029,13.2974,4.59968,2469.947,2019-12-14T12:11:19Z
2019-12-14T10:13:52Z,42.805,6.029,13.2971,4.59968,2469.96,2019-12-14T12:14:22Z
2019-12-14T10:16:55Z,42.805,6.029,13.2971,4.59968,2469.984,2019-12-14T12:17:25Z
2019-12-14T10:19:59Z,42.805,6.029,13.2971,4.59968,2469.923,2019-12-14T12:20:29Z
2019-12-14T10:23:02Z,42.805,6.029,13.2968,4.59969,2469.96,2019-12-14T12:23:32Z
2019-12-14T10:26:05Z,42.805,6.029,13.2967,4.59968,2469.947,2019-12-14T12:26:35Z
2019-12-14T10:29:08Z,42.805,6.029,13.2972,4.59968,2469.97,2019-12-14T12:29:38Z
2019-12-14T10:32:12Z,42.805,6.029,13.2969,4.59969,2469.97,2019-12-14T12:32:42Z
2019-12-14T10:35:15Z,42.805,6.029,13.2971,4.59969,2469.923,2019-12-14T12:35:45Z
2019-12-14T10:38:18Z,42.805,6.029,13.2972,4.59968,2469.947,2019-12-14T12:38:48Z
2019-12-14T10:41:21Z,42.805,6.029,13.2967,4.59969,2469.96,2019-12-14T12:41:51Z
2019-12-14T10:44:25Z,42.805,6.029,13.2969,4.59968,2469.937,2019-12-14T12:44:55Z
2019-12-14T10:47:28Z,42.805,6.029,13.2968,4.59968,2469.9,2019-12-14T12:47:58Z
2019-12-14T10:50:31Z,42.805,6.029,13.2972,4.59968,2469.947,2019-12-14T12:51:01Z
2019-12-14T10:53:34Z,42.805,6.029,13.2969,4.59968,2469.96,2019-12-14T12:54:04Z
2019-12-14T10:56:37Z,42.805,6.029,13.2972,4.59968,2469.937,2019-12-14T12:57:07Z
2019-12-14T10:59:41Z,42.805,6.029,13.2969,4.59968,2469.937,2019-12-14T13:00:11Z
2019-12-14T11:02:44Z,42.805,6.029,13.2972,4.59968,2469.9,2019-12-14T13:03:14Z
2019-12-14T11:05:47Z,42.805,6.029,13.2972,4.59968,2469.923,2019-12-14T13:06:17Z
2019-12-14T11:08:50Z,42.805,6.029,13.2968,4.59968,2469.923,2019-12-14T13:09:20Z
2019-12-14T11:11:53Z,42.805,6.029,13.2971,4.59968,2469.923,2019-12-14T13:12:23Z
2019-12-14T11:14:56Z,42.805,6.029,13.2973,4.59968,2469.937,2019-12-14T13:15:26Z
2019-12-14T11:18:00Z,42.805,6.029,13.2969,4.59968,2469.937,2019-12-14T13:18:30Z
2019-12-14T11:21:03Z,42.805,6.029,13.2974,4.59970,2469.923,2019-12-14T13:21:33Z
2019-12-14T11:24:06Z,42.805,6.029,13.2969,4.59968,2469.914,2019-12-14T13:24:36Z
2019-12-14T11:27:09Z,42.805,6.029,13.2972,4.59968,2469.923,2019-12-14T13:27:39Z
2019-12-14T11:30:12Z,42.805,6.029,13.2972,4.59968,2469.9,2019-12-14T13:30:42Z
2019-12-14T11:33:16Z,42.805,6.029,13.2971,4.59968,2469.9,2019-12-14T13:33:46Z
2019-12-14T11:36:19Z,42.805,6.029,13.2967,4.59968,2469.96,2019-12-14T13:36:49Z
2019-12-14T11:39:22Z,42.805,6.029,13.2971,4.59968,2469.9,2019-12-14T13:39:52Z
2019-12-14T11:42:25Z,42.805,6.029,13.2969,4.59969,2469.923,2019-12-14T13:42:55Z
2019-12-14T11:45:29Z,42.805,6.029,13.2971,4.59968,2469.923,2019-12-14T13:45:59Z
2019-12-14T11:48:32Z,42.805,6.029,13.2970,4.59968,2469.947,2019-12-14T13:49:02Z
2019-12-14T11:51:35Z,42.805,6.029,13.2969,4.59968,2469.923,2019-12-14T13:52:05Z
2019-12-14T11:54:38Z,42.805,6.029,13.2973,4.59968,2469.9,2019-12-14T13:55:08Z
2019-12-14T11:57:41Z,42.805,6.029,13.2971,4.59969,2469.9,2019-12-14T13:58:11Z
2019-12-14T12:00:44Z,42.805,6.029,13.2970,4.59968,2469.9,2019-12-14T14:01:14Z
2019-12-14T12:03:48Z,42.805,6.029,13.2973,4.59968,2469.9,2019-12-14T14:04:18Z
2019-12-14T12:06:51Z,42.805,6.029,13.2971,4.59969,2469.9,2019-12-14T14:07:21Z
2019-12-14T12:09:54Z,42.805,6.029,13.2972,4.59968,2469.9,2019-12-14T14:10:24Z
2019-12-14T12:12:57Z,42.805,6.029,13.2971,4.59968,2469.89,2019-12-14T14:13:27Z
2019-12-14T12:16:00Z,42.805,6.029,13.2971,4.59968,2469.914,2019-12-14T14:16:30Z
2019-12-14T12:19:04Z,42.805,6.029,13.2972,4.59968,2469.9,2019-12-14T14:19:34Z
2019-12-14T12:22:07Z,42.805,6.029,13.2967,4.59969,2469.947,2019-12-14T14:22:37Z
2019-12-14T12:25:10Z,42.805,6.029,13.2969,4.59968,2469.9,2019-12-14T14:25:40Z
2019-12-14T12:28:14Z,42.805,6.029,13.2974,4.59969,2469.914,2019-12-14T14:28:44Z
2019-12-14T12:31:17Z,42.805,6.029,13.2973,4.59969,2469.853,2019-12-14T14:31:47Z
2019-12-14T12:34:20Z,42.805,6.029,13.2969,4.59968,2469.923,2019-12-14T14:34:50Z
2019-12-14T12:37:23Z,42.805,6.029,13.2971,4.59968,2469.923,2019-12-14T14:37:53Z
2019-12-14T12:40:26Z,42.805,6.029,13.2968,4.59969,2469.937,2019-12-14T14:40:56Z
2019-12-14T12:43:29Z,42.805,6.029,13.2969,4.59968,2469.89,2019-12-14T14:43:59Z
2019-12-14T12:46:33Z,42.805,6.029,13.2969,4.59969,2469.9,2019-12-14T14:47:03Z
2019-12-14T12:49:36Z,42.805,6.029,13.2970,4.59968,2469.914,2019-12-14T14:50:06Z
2019-12-14T12:52:39Z,42.805,6.029,13.2971,4.59969,2469.876,2019-12-14T14:53:09Z
2019-12-14T12:55:42Z,42.805,6.029,13.2971,4.59968,2469.9,2019-12-14T14:56:12Z
2019-12-14T12:58:45Z,42.805,6.029,13.2971,4.59970,2469.853,2019-12-14T14:59:15Z
2019-12-14T13:01:49Z,42.805,6.029,13.2972,4.59968,2469.9,2019-12-14T15:02:19Z
2019-12-14T13:04:52Z,42.805,6.029,13.2969,4.59970,2469.853,2019-12-14T15:05:22Z
2019-12-14T13:07:55Z,42.805,6.029,13.2971,4.59968,2469.876,2019-12-14T15:08:25Z
2019-12-14T13:10:58Z,42.805,6.029,13.2973,4.59968,2469.867,2019-12-14T15:11:28Z
2019-12-14T13:14:01Z,42.805,6.029,13.2968,4.59968,2469.867,2019-12-14T15:14:31Z
2019-12-14T13:17:05Z,42.805,6.029,13.2973,4.59969,2469.876,2019-12-14T15:17:35Z
2019-12-14T13:20:08Z,42.805,6.029,13.2972,4.59968,2469.853,2019-12-14T15:20:38Z
2019-12-14T13:23:11Z,42.805,6.029,13.2972,4.59970,2469.867,2019-12-14T15:23:41Z
2019-12-14T13:26:14Z,42.805,6.029,13.2971,4.59968,2469.876,2019-12-14T15:26:44Z
2019-12-14T13:29:17Z,42.805,6.029,13.2971,4.59969,2469.89,2019-12-14T15:29:47Z
2019-12-14T13:32:21Z,42.805,6.029,13.2976,4.59969,2469.83,2019-12-14T15:32:51Z
2019-12-14T13:35:24Z,42.805,6.029,13.2974,4.59968,2469.844,2019-12-14T15:35:54Z
2019-12-14T13:38:27Z,42.805,6.029,13.2972,4.59968,2469.867,2019-12-14T15:38:57Z
2019-12-14T13:41:30Z,42.805,6.029,13.2970,4.59968,2469.876,2019-12-14T15:42:00Z
2019-12-14T13:44:33Z,42.805,6.029,13.2972,4.59968,2469.83,2019-12-14T15:45:04Z
2019-12-14T13:47:37Z,42.805,6.029,13.2969,4.59968,2469.821,2019-12-14T15:48:07Z
2019-12-14T13:50:40Z,42.805,6.029,13.2971,4.59968,2469.83,2019-12-14T15:51:10Z
2019-12-14T13:53:43Z,42.805,6.029,13.2973,4.59969,2469.867,2019-12-14T15:54:13Z
2019-12-14T13:56:46Z,42.805,6.029,13.2968,4.59968,2469.83,2019-12-14T15:57:16Z
2019-12-14T13:59:50Z,42.805,6.029,13.2967,4.59968,2469.844,2019-12-14T16:00:20Z
2019-12-14T14:02:53Z,42.805,6.029,13.2971,4.59968,2469.853,2019-12-14T16:03:23Z
2019-12-14T14:05:56Z,42.805,6.029,13.2970,4.59969,2469.83,2019-12-14T16:06:26Z
2019-12-14T14:08:59Z,42.805,6.029,13.2970,4.59968,2469.83,2019-12-14T16:09:29Z
2019-12-14T14:12:02Z,42.805,6.029,13.2973,4.59968,2469.867,2019-12-14T16:12:32Z
2019-12-14T14:15:05Z,42.805,6.029,13.2967,4.59968,2469.867,2019-12-14T16:15:35Z
2019-12-14T14:18:09Z,42.805,6.029,13.2974,4.59968,2469.821,2019-12-14T16:18:39Z
2019-12-14T14:21:12Z,42.805,6.029,13.2973,4.59968,2469.806,2019-12-14T16:21:42Z
2019-12-14T14:24:15Z,42.805,6.029,13.2976,4.59971,2469.821,2019-12-14T16:24:45Z
2019-12-14T14:27:18Z,42.805,6.029,13.2968,4.59968,2469.83,2019-12-14T16:27:48Z
2019-12-14T14:30:22Z,42.805,6.029,13.2971,4.59968,2469.83,2019-12-14T16:30:52Z
2019-12-14T14:33:25Z,42.805,6.029,13.2974,4.59968,2469.821,2019-12-14T16:33:55Z
2019-12-14T14:36:28Z,42.805,6.029,13.2976,4.59968,2469.853,2019-12-14T16:36:58Z
2019-12-14T14:39:31Z,42.805,6.029,13.2969,4.59968,2469.844,2019-12-14T16:40:01Z
2019-12-14T14:42:34Z,42.805,6.029,13.2970,4.59968,2469.83,2019-12-14T16:43:04Z
2019-12-14T14:45:37Z,42.805,6.029,13.2970,4.59968,2469.83,2019-12-14T16:46:08Z
2019-12-14T14:48:41Z,42.805,6.029,13.2974,4.59969,2469.83,2019-12-14T16:49:11Z
2019-12-14T14:51:44Z,42.805,6.029,13.2970,4.59968,2469.844,2019-12-14T16:52:14Z
2019-12-14T14:54:47Z,42.805,6.029,13.2973,4.59968,2469.83,2019-12-14T16:55:17Z
2019-12-14T14:57:50Z,42.805,6.029,13.2972,4.59968,2469.844,2019-12-14T16:58:20Z
2019-12-14T15:00:54Z,42.805,6.029,13.2974,4.59968,2469.83,2019-12-14T17:01:24Z